Hourly Weather Maslovo

Today, 9 May, Sunday

Time Temperature Precipitation Wind Pressure Humidity
00:00 0°C° 1.5 mm 8 mps 739 mmHg 96%
01:00 0°C° 1.5 mm 8 mps 740 mmHg 97%
02:00 0°C° 1.5 mm 8 mps 740 mmHg 97%
03:00 0°C° 0.5 mm 8 mps 741 mmHg 97%
04:00 0°C° 0.5 mm 7 mps 742 mmHg 96%
05:00 0°C° 0.5 mm 7 mps 743 mmHg 96%
06:00 0°C° 0.1 mm 7 mps 743 mmHg 92%
07:00 +2°C° 0.1 mm 7 mps 744 mmHg 87%
08:00 +3°C° 0.1 mm 7 mps 744 mmHg 82%
09:00 +4°C° 0.1 mm 7 mps 745 mmHg 80%
10:00 +4°C° 0.1 mm 7 mps 746 mmHg 77%
11:00 +5°C° 0.1 mm 7 mps 746 mmHg 74%
12:00 +5°C° 0 mm 7 mps 747 mmHg 72%
13:00 +6°C° 0 mm 7 mps 747 mmHg 70%
14:00 +7°C° 0 mm 6 mps 748 mmHg 68%
15:00 +8°C° 0 mm 6 mps 748 mmHg 67%
16:00 +8°C° 0 mm 5 mps 749 mmHg 65%
17:00 +8°C° 0 mm 5 mps 749 mmHg 64%
18:00 +7°C° 0 mm 4 mps 749 mmHg 68%
19:00 +6°C° 0 mm 4 mps 750 mmHg 73%
20:00 +4°C° 0 mm 3 mps 750 mmHg 77%
21:00 +4°C° 0 mm 3 mps 751 mmHg 78%
22:00 +3°C° 0 mm 3 mps 751 mmHg 80%
23:00 +2°C° 0 mm 3 mps 752 mmHg 81%

Tomorrow, 10 May, Monday

Time Temperature Precipitation Wind Pressure Humidity
00:00 +2°C° 0 mm 3 mps 752 mmHg 80%
01:00 +2°C° 0 mm 3 mps 753 mmHg 79%
02:00 +1°C° 0 mm 3 mps 753 mmHg 79%
03:00 +1°C° 0 mm 3 mps 753 mmHg 78%
04:00 +1°C° 0 mm 3 mps 754 mmHg 78%
05:00 +1°C° 0 mm 3 mps 754 mmHg 77%
06:00 +4°C° 0 mm 3 mps 754 mmHg 71%
07:00 +7°C° 0 mm 3 mps 755 mmHg 65%
08:00 +8°C° 0 mm 4 mps 755 mmHg 60%
09:00 +10°C° 0 mm 4 mps 755 mmHg 56%
10:00 +10°C° 0 mm 5 mps 755 mmHg 52%
11:00 +12°C° 0 mm 5 mps 755 mmHg 48%
12:00 +13°C° 0 mm 6 mps 755 mmHg 47%
13:00 +13°C° 0 mm 6 mps 754 mmHg 46%
14:00 +13°C° 0 mm 6 mps 754 mmHg 45%
15:00 +13°C° 0 mm 6 mps 754 mmHg 50%
16:00 +13°C° 0 mm 5 mps 754 mmHg 54%
17:00 +12°C° 0 mm 5 mps 754 mmHg 59%
18:00 +10°C° 0 mm 4 mps 754 mmHg 65%
19:00 +8°C° 0 mm 4 mps 754 mmHg 72%
20:00 +7°C° 0 mm 3 mps 755 mmHg 78%
21:00 +5°C° 0 mm 3 mps 754 mmHg 79%
22:00 +5°C° 0 mm 4 mps 754 mmHg 80%
23:00 +4°C° 0 mm 4 mps 754 mmHg 80%

Day after tomorrow, 11 May, Tuesday

Time Temperature Precipitation Wind Pressure Humidity
00:00 +4°C° 0 mm 4 mps 754 mmHg 80%
01:00 +4°C° 0 mm 4 mps 754 mmHg 80%
02:00 +3°C° 0 mm 4 mps 754 mmHg 79%
03:00 +4°C° 0 mm 4 mps 754 mmHg 79%
04:00 +3°C° 0 mm 5 mps 754 mmHg 78%
05:00 +3°C° 0 mm 5 mps 754 mmHg 78%
06:00 +5°C° 0 mm 6 mps 754 mmHg 74%
07:00 +8°C° 0 mm 6 mps 754 mmHg 70%
08:00 +9°C° 0 mm 7 mps 753 mmHg 67%
09:00 +11°C° 0 mm 7 mps 753 mmHg 66%
10:00 +12°C° 0 mm 7 mps 753 mmHg 65%
11:00 +15°C° 0 mm 7 mps 753 mmHg 65%
12:00 +15°C° 0 mm 7 mps 753 mmHg 67%
13:00 +15°C° 0 mm 7 mps 753 mmHg 69%
14:00 +15°C° 0 mm 6 mps 752 mmHg 71%
15:00 +15°C° 0 mm 6 mps 753 mmHg 75%
16:00 +15°C° 0 mm 5 mps 753 mmHg 78%
17:00 +15°C° 0 mm 5 mps 753 mmHg 81%
18:00 +13°C° 0 mm 4 mps 753 mmHg 85%
19:00 +12°C° 0 mm 3 mps 752 mmHg 89%
20:00 +11°C° 0 mm 3 mps 752 mmHg 93%
21:00 +11°C° 0.5 mm 3 mps 752 mmHg 93%
22:00 +11°C° 0.5 mm 3 mps 751 mmHg 94%
23:00 +12°C° 0.5 mm 3 mps 751 mmHg 94%

12 May, Wednesday

Time Temperature Precipitation Wind Pressure Humidity
00:00 +11°C° 0.5 mm 3 mps 751 mmHg 94%
01:00 +10°C° 0.5 mm 2 mps 751 mmHg 94%
02:00 +10°C° 0.5 mm 1 mps 751 mmHg 95%
03:00 +10°C° 0.1 mm 1 mps 751 mmHg 95%
04:00 +10°C° 0.1 mm 1 mps 750 mmHg 95%
05:00 +10°C° 0.1 mm 1 mps 750 mmHg 95%
06:00 +9°C° 1 mm 2 mps 750 mmHg 95%
07:00 +9°C° 1 mm 2 mps 750 mmHg 95%
08:00 +9°C° 1 mm 3 mps 750 mmHg 95%
09:00 +9°C° 1.3 mm 2 mps 750 mmHg 92%
10:00 +9°C° 1.3 mm 2 mps 750 mmHg 90%
11:00 +10°C° 1.3 mm 1 mps 750 mmHg 87%
12:00 +12°C° 0 mm 2 mps 750 mmHg 81%
13:00 +12°C° 0 mm 3 mps 750 mmHg 76%
14:00 +14°C° 0 mm 4 mps 750 mmHg 70%
15:00 +14°C° 0 mm 4 mps 750 mmHg 72%
16:00 +14°C° 0 mm 4 mps 750 mmHg 74%
17:00 +14°C° 0 mm 5 mps 750 mmHg 77%
18:00 +12°C° 0 mm 4 mps 750 mmHg 80%
19:00 +11°C° 0 mm 4 mps 750 mmHg 83%
20:00 +10°C° 0 mm 3 mps 749 mmHg 86%
21:00 +10°C° 0 mm 4 mps 749 mmHg 87%
22:00 +11°C° 0 mm 4 mps 749 mmHg 88%
23:00 +11°C° 0 mm 4 mps 748 mmHg 89%

13 May, Thursday

Time Temperature Precipitation Wind Pressure Humidity
00:00 +11°C° 0 mm 4 mps 748 mmHg 91%
01:00 +10°C° 0 mm 3 mps 747 mmHg 93%
02:00 +10°C° 0 mm 3 mps 747 mmHg 95%
03:00 +10°C° 0 mm 3 mps 747 mmHg 96%
04:00 +10°C° 0 mm 3 mps 746 mmHg 96%
05:00 +10°C° 0 mm 3 mps 746 mmHg 97%
06:00 +12°C° 0 mm 4 mps 746 mmHg 91%
07:00 +13°C° 0 mm 5 mps 746 mmHg 84%
08:00 +15°C° 0 mm 5 mps 746 mmHg 78%
09:00 +16°C° 0.1 mm 6 mps 746 mmHg 74%
10:00 +16°C° 0.1 mm 6 mps 746 mmHg 71%
11:00 +17°C° 0.1 mm 7 mps 746 mmHg 67%
12:00 +17°C° 0.3 mm 6 mps 746 mmHg 67%
13:00 +19°C° 0.3 mm 6 mps 746 mmHg 67%
14:00 +19°C° 0.3 mm 6 mps 746 mmHg 67%
15:00 +17°C° 0.3 mm 5 mps 746 mmHg 72%
16:00 +18°C° 0.3 mm 4 mps 746 mmHg 76%
17:00 +17°C° 0.3 mm 3 mps 746 mmHg 81%
18:00 +16°C° 0.1 mm 3 mps 746 mmHg 83%
19:00 +14°C° 0.1 mm 3 mps 746 mmHg 86%
20:00 +14°C° 0.1 mm 2 mps 746 mmHg 88%
21:00 +14°C° 0.1 mm 2 mps 746 mmHg 89%
22:00 +14°C° 0.1 mm 2 mps 746 mmHg 90%
23:00 +12°C° 0.1 mm 3 mps 745 mmHg 90%

14 May, Friday

Time Temperature Precipitation Wind Pressure Humidity
00:00 +12°C° 0.1 mm 3 mps 745 mmHg 91%
01:00 +12°C° 0.1 mm 3 mps 745 mmHg 91%
02:00 +12°C° 0.1 mm 3 mps 745 mmHg 91%
03:00 +12°C° 0.1 mm 3 mps 745 mmHg 91%
04:00 +13°C° 0.1 mm 4 mps 744 mmHg 91%
05:00 +13°C° 0.1 mm 4 mps 744 mmHg 91%
06:00 +14°C° 0.9 mm 5 mps 744 mmHg 90%
07:00 +14°C° 0.9 mm 6 mps 743 mmHg 89%
08:00 +15°C° 0.9 mm 6 mps 743 mmHg 89%
09:00 +16°C° 0.1 mm 6 mps 743 mmHg 87%
10:00 +16°C° 0.1 mm 6 mps 743 mmHg 86%
11:00 +17°C° 0.1 mm 5 mps 744 mmHg 84%
12:00 +19°C° 0.1 mm 5 mps 744 mmHg 80%
13:00 +20°C° 0.1 mm 5 mps 744 mmHg 76%
14:00 +20°C° 0.1 mm 5 mps 744 mmHg 72%
15:00 +20°C° 0.1 mm 5 mps 744 mmHg 74%
16:00 +20°C° 0.1 mm 5 mps 744 mmHg 75%
17:00 +20°C° 0.1 mm 5 mps 744 mmHg 76%
18:00 +18°C° 0 mm 4 mps 744 mmHg 81%
19:00 +17°C° 0 mm 3 mps 744 mmHg 85%
20:00 +15°C° 0 mm 2 mps 744 mmHg 90%
21:00 +15°C° 0 mm 2 mps 744 mmHg 90%
22:00 +14°C° 0 mm 2 mps 744 mmHg 91%
23:00 +13°C° 0 mm 2 mps 744 mmHg 91%
Show more